Weather History for Sparta, WI

Change the Weather History Date:

Sunday, September 22, 2013

  Actual Average Record
Temperature  
Mean Temperature 49 °F -  
Max Temperature 68 °F 64 °F 80 °F (2004)
Min Temperature 31 °F 41 °F 26 °F (1974)
Degree Days  
Heating Degree Days 16    
Growing Degree Days 0 (Base 50)    
Moisture  
Dew Point 41 °F    
Average Humidity 75    
Maximum Humidity 100    
Minimum Humidity 44    
Precipitation  
Precipitation 0.00 in - - ()
Sea Level Pressure  
Sea Level Pressure 30.02 in    
Wind  
Wind Speed 2 mph (ESE)    
Max Wind Speed 10 mph    
Max Gust Speed -    
Visibility 10 miles    
Events      
Averages and records for this station are not official NWS values.
T = Trace of Precipitation, MM = Missing Value Source: NWS Daily Summary

Daily Weather History Graph

Daily Weather History Graph

Search for Another Location

Airport:

Trip Planner

Search our weather history database for the weather conditions in past years. The results will help you decide how hot, cold, wet, or windy it might be!

Date:

Astronomy

Sep. 22, 2013 Rise Set
Actual Time 6:50 AM CDT 6:59 PM CDT
Civil Twilight 6:21 AM CDT 7:28 PM CDT
Nautical Twilight 5:47 AM CDT 8:02 PM CDT
Astronomical Twilight 5:13 AM CDT 8:36 PM CDT
Moon 8:41 PM CDT (9/22) 10:18 AM CDT (9/22)
Length of Visible Light 13h 06m
Length of Day
12h 09m
Waning Gibbous, 88% of the Moon is Illuminated
Sep 22
Waning Gibbous
Sep 26
Last Quarter
Oct 4
New
Oct 11
First Quarter
Oct 18
Full

Hourly Weather History & Observations

Time (CDT) Temp. Windchill Dew Point Humidity Pressure Visibility Wind Dir Wind Speed Gust Speed Precip Events Conditions
12:15 AM 37.4 °F - 37.0 °F 99% 29.98 in 10.0 mi Calm Calm - N/A   Clear
12:35 AM 37.6 °F - 37.6 °F 100% 29.99 in 10.0 mi Calm Calm - N/A   Clear
12:55 AM 37.9 °F - 37.4 °F 98% 29.99 in 10.0 mi Calm Calm - N/A   Clear
1:15 AM 37.0 °F - 36.5 °F 98% 29.99 in 10.0 mi Calm Calm - N/A   Clear
1:35 AM 36.9 °F - 36.7 °F 99% 30.00 in 10.0 mi Calm Calm - N/A   Mostly Cloudy
1:55 AM 36.7 °F - 36.5 °F 99% 30.01 in 10.0 mi Calm Calm - N/A   Mostly Cloudy
2:15 AM 36.3 °F - 36.3 °F 100% 30.01 in 10.0 mi Calm Calm - N/A   Clear
2:35 AM 35.6 °F - 35.6 °F 100% 30.01 in 10.0 mi Calm Calm - N/A   Clear
2:55 AM 35.6 °F - 35.4 °F 99% 30.01 in 10.0 mi Calm Calm - N/A   Clear
3:15 AM 36.0 °F - 36.0 °F 100% 30.01 in 10.0 mi Calm Calm - N/A   Clear
3:35 AM 37.9 °F - 37.6 °F 99% 30.01 in 10.0 mi Calm Calm - N/A   Clear
3:55 AM 38.7 °F - 38.1 °F 98% 30.02 in 10.0 mi Calm Calm - N/A   Clear
4:15 AM 36.1 °F - 36.1 °F 100% 30.02 in 10.0 mi Calm Calm - N/A   Clear
4:35 AM 34.9 °F - 34.9 °F 100% 30.02 in 10.0 mi Calm Calm - N/A   Clear
4:55 AM 35.2 °F - 35.2 °F 100% 30.02 in 10.0 mi Calm Calm - N/A   Clear
5:15 AM 34.2 °F - 33.8 °F 99% 30.03 in 10.0 mi Calm Calm - N/A   Clear
5:35 AM 33.4 °F - 33.4 °F 100% 30.03 in 10.0 mi Calm Calm - N/A   Clear
5:55 AM 34.0 °F - 34.0 °F 100% 30.04 in 10.0 mi Calm Calm - N/A   Clear
6:15 AM 33.8 °F - 33.8 °F 100% 30.04 in 10.0 mi Calm Calm - N/A   Clear
6:35 AM 34.0 °F - 34.0 °F 100% 30.05 in 10.0 mi Calm Calm - N/A   Clear
6:55 AM 31.8 °F - 31.8 °F 100% 30.05 in 10.0 mi Calm Calm - N/A   Clear
7:15 AM 32.5 °F - 32.5 °F 100% 30.06 in 10.0 mi Calm Calm - N/A   Clear
7:35 AM 34.7 °F - 34.7 °F 100% 30.06 in 10.0 mi Calm Calm - N/A   Clear
7:55 AM 38.7 °F - 37.9 °F 97% 30.07 in 10.0 mi Calm Calm - N/A   Clear
8:15 AM 41.7 °F - 40.5 °F 95% 30.07 in 10.0 mi Calm Calm - N/A   Clear
8:35 AM 45.5 °F 43.2 °F 41.7 °F 87% 30.07 in 10.0 mi ENE 4.6 mph - N/A   Clear
8:55 AM 47.8 °F - 40.8 °F 77% 30.07 in 10.0 mi East 4.6 mph - N/A   Clear
9:15 AM 49.6 °F - 41.4 °F 73% 30.08 in 10.0 mi East 3.5 mph - N/A   Clear
9:35 AM 52.3 °F - 41.5 °F 67% 30.07 in 10.0 mi East 6.9 mph - N/A   Clear
9:55 AM 54.0 °F - 41.5 °F 63% 30.07 in 10.0 mi ESE 6.9 mph - N/A   Clear
10:15 AM 55.4 °F - 41.7 °F 60% 30.07 in 10.0 mi East 5.8 mph - N/A   Clear
10:35 AM 56.3 °F - 42.1 °F 59% 30.07 in 10.0 mi East 5.8 mph - N/A   Clear
10:55 AM 57.7 °F - 42.6 °F 57% 30.07 in 10.0 mi East 4.6 mph - N/A   Clear
11:15 AM 58.3 °F - 43.0 °F 57% 30.06 in 10.0 mi East 5.8 mph - N/A   Clear
11:35 AM 59.0 °F - 43.2 °F 56% 30.06 in 10.0 mi East 5.8 mph - N/A   Clear
11:55 AM 60.8 °F - 43.9 °F 54% 30.06 in 10.0 mi East 4.6 mph - N/A   Clear
12:15 PM 61.9 °F - 43.9 °F 52% 30.05 in 10.0 mi East 5.8 mph - N/A   Clear
12:35 PM 62.2 °F - 44.1 °F 51% 30.05 in 10.0 mi East 4.6 mph - N/A   Clear
12:55 PM 63.1 °F - 44.1 °F 50% 30.05 in 10.0 mi East 5.8 mph - N/A   Clear
1:15 PM 63.7 °F - 44.8 °F 50% 30.03 in 10.0 mi East 9.2 mph - N/A   Clear
1:35 PM 64.6 °F - 44.8 °F 49% 30.02 in 10.0 mi SE 5.8 mph - N/A   Clear
1:55 PM 65.5 °F - 44.8 °F 47% 30.02 in 10.0 mi East 6.9 mph - N/A   Clear
2:15 PM 65.8 °F - 44.6 °F 46% 30.01 in 10.0 mi SE 8.1 mph - N/A   Clear
2:35 PM 66.0 °F - 44.6 °F 46% 30.01 in 10.0 mi East 5.8 mph - N/A   Clear
2:55 PM 66.2 °F - 44.6 °F 46% 30.00 in 10.0 mi SE 5.8 mph - N/A   Clear
3:15 PM 67.1 °F - 44.4 °F 44% 29.99 in 10.0 mi SE 5.8 mph - N/A   Clear
3:35 PM 67.5 °F - 45.0 °F 44% 29.99 in 10.0 mi SE 10.4 mph - N/A   Clear
3:55 PM 67.6 °F - 45.0 °F 44% 29.99 in 10.0 mi SE 6.9 mph - N/A   Clear
4:15 PM 67.3 °F - 44.8 °F 44% 29.98 in 10.0 mi SSE 6.9 mph - N/A   Clear
4:35 PM 67.6 °F - 44.8 °F 44% 29.98 in 10.0 mi ESE 9.2 mph - N/A   Clear
4:55 PM 67.1 °F - 45.1 °F 45% 29.98 in 10.0 mi SE 6.9 mph - N/A   Clear
5:15 PM 66.4 °F - 45.5 °F 47% 29.98 in 10.0 mi SE 6.9 mph - N/A   Clear
5:35 PM 66.0 °F - 45.5 °F 48% 29.98 in 10.0 mi ESE 6.9 mph - N/A   Clear
5:55 PM 65.1 °F - 45.7 °F 49% 29.98 in 10.0 mi ESE 8.1 mph - N/A   Clear
6:15 PM 64.2 °F - 46.2 °F 52% 29.98 in 10.0 mi ESE 5.8 mph - N/A   Clear
6:35 PM 62.6 °F - 46.6 °F 56% 29.99 in 10.0 mi SE 5.8 mph - N/A   Clear
6:55 PM 60.8 °F - 46.6 °F 59% 29.99 in 10.0 mi ESE 5.8 mph - N/A   Clear
7:15 PM 59.2 °F - 46.8 °F 63% 29.99 in 10.0 mi ESE 4.6 mph - N/A   Clear
7:35 PM 56.5 °F - 47.3 °F 71% 30.00 in 10.0 mi East 3.5 mph - N/A   Clear
7:55 PM 54.1 °F - 47.3 °F 78% 30.00 in 10.0 mi East 4.6 mph - N/A   Clear
8:15 PM 53.6 °F - 47.1 °F 79% 30.01 in 10.0 mi East 4.6 mph - N/A   Clear
8:35 PM 52.9 °F - 46.9 °F 80% 30.02 in 10.0 mi ESE 4.6 mph - N/A   Clear
8:55 PM 51.6 °F - 46.6 °F 83% 30.02 in 10.0 mi ESE 3.5 mph - N/A   Clear
9:15 PM 51.1 °F - 46.4 °F 84% 30.02 in 10.0 mi East 3.5 mph - N/A   Clear
9:35 PM 50.9 °F - 45.9 °F 83% 30.02 in 10.0 mi East 4.6 mph - N/A   Clear
9:55 PM 50.5 °F - 45.1 °F 82% 30.02 in 10.0 mi ESE 3.5 mph - N/A   Clear
10:15 PM 50.9 °F - 45.0 °F 80% 30.03 in 10.0 mi East 3.5 mph - N/A   Clear
10:35 PM 48.4 °F - 43.9 °F 84% 30.03 in 10.0 mi East 3.5 mph - N/A   Clear
10:55 PM 48.2 °F - 43.7 °F 84% 30.03 in 10.0 mi Calm Calm - N/A   Clear
11:15 PM 48.4 °F - 43.7 °F 84% 30.03 in 10.0 mi Calm Calm - N/A   Clear
11:35 PM 48.4 °F - 43.0 °F 82% 30.03 in 10.0 mi Calm Calm - N/A   Clear
11:55 PM 45.9 °F 43.6 °F 43.0 °F 90% 30.03 in 10.0 mi East 4.6 mph - N/A   Clear